Weather History for Fort Bragg, NC

Change the Weather History Date:

Thursday, January 3, 2013

  Actual Average Record
Temperature  
Mean Temperature 38 °F -  
Max Temperature 44 °F 53 °F 75 °F (2000)
Min Temperature 31 °F 35 °F 19 °F (2001)
Degree Days  
Heating Degree Days 26    
Moisture  
Dew Point 36 °F    
Average Humidity 85    
Maximum Humidity 98    
Minimum Humidity 57    
Precipitation  
Precipitation 0.01 in - - ()
Sea Level Pressure  
Sea Level Pressure 30.20 in    
Wind  
Wind Speed 3 mph (ENE)    
Max Wind Speed 7 mph    
Max Gust Speed -    
Visibility 8 miles    
Events      
Averages and records for this station are not official NWS values.
T = Trace of Precipitation, MM = Missing Value Source: NWS Daily Summary

Daily Weather History Graph

Daily Weather History Graph

Search for Another Location

Airport:

Trip Planner

Search our weather history database for the weather conditions in past years. The results will help you decide how hot, cold, wet, or windy it might be!

Date:

Astronomy

Jan. 03, 2013 Rise Set
Actual Time 7:24 AM EST 5:16 PM EST
Civil Twilight 6:56 AM EST 5:44 PM EST
Nautical Twilight 6:24 AM EST 6:16 PM EST
Astronomical Twilight 5:54 AM EST 6:46 PM EST
Moon 11:34 PM EST (1/3) 10:49 AM EST (1/3)
Length of Visible Light 10h 48m
Length of Day
9h 52m
Waning Gibbous, 65% of the Moon is Illuminated
Jan 3
Waning Gibbous
Jan 4
Last Quarter
Jan 11
New
Jan 18
First Quarter
Jan 26
Full

Hourly Weather History & Observations

Time (EST) Temp. Windchill Dew Point Humidity Pressure Visibility Wind Dir Wind Speed Gust Speed Precip Events Conditions
12:55 AM 41.4 °F 39.4 °F 38.3 °F 89% 30.17 in 10.0 mi ESE 3.5 mph - N/A   Overcast
1:55 AM 41.0 °F 39.0 °F 38.7 °F 91% 30.15 in 10.0 mi ESE 3.5 mph - N/A   Scattered Clouds
2:55 AM 41.0 °F - 39.2 °F 93% 30.18 in 10.0 mi Calm Calm - N/A   Scattered Clouds
3:55 AM 40.8 °F 38.8 °F 39.0 °F 93% 30.16 in 10.0 mi ENE 3.5 mph - N/A   Overcast
3:58 AM 41.0 °F 39.0 °F 39.2 °F 93% 30.16 in 10.0 mi NNE 3.5 mph - N/A   Overcast
4:44 AM 41.0 °F - 39.2 °F 93% 30.17 in 9.0 mi Calm Calm - N/A   Overcast
4:55 AM 40.6 °F 38.6 °F 39.6 °F 96% 30.16 in 9.0 mi NE 3.5 mph - 0.00 in   Overcast
5:10 AM 41.0 °F 37.1 °F 39.2 °F 93% 30.18 in 8.0 mi North 5.8 mph - N/A   Overcast
5:44 AM 41.0 °F 39.0 °F 39.2 °F 93% 30.17 in 7.0 mi ESE 3.5 mph - N/A   Mostly Cloudy
5:55 AM 40.5 °F 37.3 °F 39.9 °F 98% 30.17 in 7.0 mi SE 4.6 mph - 0.01 in   Scattered Clouds
6:55 AM 40.3 °F - 39.7 °F 98% 30.19 in 8.0 mi Calm Calm - N/A   Mostly Cloudy
7:16 AM 41.0 °F 39.0 °F 39.2 °F 93% 30.19 in 2.5 mi NNE 3.5 mph - N/A   Light Drizzle
7:33 AM 41.0 °F 39.0 °F 39.2 °F 93% 30.18 in 2.5 mi East 3.5 mph - N/A   Mostly Cloudy
7:55 AM 40.1 °F 38.0 °F 39.6 °F 98% 30.19 in 2.5 mi NE 3.5 mph - 0.00 in   Overcast
8:55 AM 40.3 °F 36.3 °F 39.7 °F 98% 30.21 in 2.5 mi NE 5.8 mph - N/A   Overcast
9:43 AM 41.0 °F 38.0 °F 39.2 °F 93% 30.23 in 9.0 mi East 4.6 mph - N/A   Overcast
9:55 AM 40.6 °F 36.7 °F 38.5 °F 92% 30.23 in 3.0 mi ENE 5.8 mph - N/A   Overcast
10:55 AM 41.4 °F 36.8 °F 36.7 °F 83% 30.22 in 5.0 mi East 6.9 mph - N/A   Overcast
11:23 AM 41.0 °F 36.4 °F 35.6 °F 81% 30.22 in 10.0 mi ENE 6.9 mph - N/A   Overcast
11:38 AM 41.0 °F 38.0 °F 35.6 °F 81% 30.20 in 10.0 mi East 4.6 mph - N/A   Overcast
11:55 AM 41.9 °F 39.0 °F 35.1 °F 77% 30.21 in 10.0 mi NE 4.6 mph - N/A   Overcast
12:55 PM 43.0 °F - 35.4 °F 75% 30.18 in 10.0 mi Calm Calm - N/A   Overcast
1:55 PM 43.2 °F - 33.8 °F 70% 30.16 in 10.0 mi Calm Calm - N/A   Mostly Cloudy
2:21 PM 42.8 °F - 33.8 °F 70% 30.16 in 10.0 mi Calm Calm - N/A   Mostly Cloudy
2:55 PM 44.2 °F 42.7 °F 34.0 °F 67% 30.16 in 10.0 mi East 3.5 mph - N/A   Scattered Clouds
3:31 PM 44.6 °F - 32.0 °F 61% 30.19 in 10.0 mi Calm Calm - N/A   Mostly Cloudy
3:55 PM 44.2 °F - 30.6 °F 59% 30.18 in 10.0 mi Calm Calm - N/A   Overcast
4:05 PM 44.6 °F - 30.2 °F 57% 30.19 in 10.0 mi Calm Calm - N/A   Overcast
4:55 PM 43.9 °F 42.3 °F 33.6 °F 67% 30.20 in 10.0 mi North 3.5 mph - N/A   Overcast
5:55 PM 43.2 °F - 34.0 °F 70% 30.22 in 10.0 mi Calm Calm - N/A   Overcast
6:55 PM 42.4 °F - 34.9 °F 75% 30.24 in 10.0 mi Calm Calm - N/A   Mostly Cloudy
7:55 PM 39.7 °F - 37.0 °F 90% 30.24 in 10.0 mi Calm Calm - N/A   Clear
8:55 PM 36.5 °F - 35.4 °F 96% 30.26 in 10.0 mi Calm Calm - N/A   Clear
9:55 PM 34.2 °F - 33.6 °F 98% 30.27 in 10.0 mi Calm Calm - N/A   Clear
10:55 PM 33.1 °F - 32.5 °F 98% 30.27 in 9.0 mi Calm Calm - N/A   Clear
11:55 PM 31.5 °F - 30.9 °F 98% 30.27 in 8.0 mi Calm Calm - N/A   Clear